Time,TemperatureF,DewpointF,PressureIn,WindDirection,WindDirectionDegrees,WindSpeedMPH,WindSpeedGustMPH,Humidity,HourlyPrecipIn,Conditions,Clouds,dailyrainin,SoftwareType,DateUTC
2013-08-05 00:00:00,67.9,65.8,29.93,ENE,69,0.0,0.0,93,0.00,,---,0.01,VWS V14.01,2013-08-05 04:00:00,
2013-08-05 00:01:00,66.5,64.7,29.94,ENE,69,0.0,0.0,94,0.00,,---,0.00,VWS V14.01,2013-08-05 04:01:00,
2013-08-05 00:06:00,66.4,64.6,29.94,ENE,69,0.0,0.0,94,0.00,,---,0.00,VWS V14.01,2013-08-05 04:06:00,
2013-08-05 00:11:00,66.3,64.8,29.94,ENE,69,0.0,0.0,95,0.00,,---,0.00,VWS V14.01,2013-08-05 04:11:00,
2013-08-05 00:16:00,66.2,64.7,29.94,ENE,69,0.0,0.0,95,0.00,,---,0.00,VWS V14.01,2013-08-05 04:16:00,
2013-08-05 00:21:00,66.2,64.7,29.95,ENE,69,0.0,0.0,95,0.00,,---,0.00,VWS V14.01,2013-08-05 04:21:00,
2013-08-05 00:26:00,66.1,64.6,29.95,ENE,69,0.0,0.0,95,0.00,,---,0.00,VWS V14.01,2013-08-05 04:26:00,
2013-08-05 00:30:00,67.1,65.3,29.94,ENE,69,0.0,0.0,94,0.00,,---,0.01,VWS V14.01,2013-08-05 04:30:00,
2013-08-05 00:31:00,66.0,64.5,29.95,ENE,69,0.0,0.0,95,0.00,,---,0.00,VWS V14.01,2013-08-05 04:31:00,
2013-08-05 00:36:00,66.0,64.5,29.95,ENE,69,0.0,0.0,95,0.00,,---,0.00,VWS V14.01,2013-08-05 04:36:00,
2013-08-05 00:41:00,65.9,64.4,29.95,ENE,69,0.0,0.0,95,0.00,,---,0.00,VWS V14.01,2013-08-05 04:41:00,
2013-08-05 00:46:00,65.8,64.3,29.95,ENE,69,0.0,0.0,95,0.00,,---,0.00,VWS V14.01,2013-08-05 04:46:00,
2013-08-05 00:51:00,65.7,64.2,29.95,ENE,69,0.0,0.0,95,0.00,,---,0.00,VWS V14.01,2013-08-05 04:51:00,
2013-08-05 00:56:00,65.7,64.2,29.94,ENE,69,0.0,0.0,95,0.00,,---,0.00,VWS V14.01,2013-08-05 04:56:00,
2013-08-05 01:00:00,66.5,64.7,29.94,ENE,69,0.0,0.0,94,0.00,,---,0.01,VWS V14.01,2013-08-05 05:00:00,
2013-08-05 01:01:00,65.6,64.1,29.94,ENE,69,0.0,0.0,95,0.00,,---,0.00,VWS V14.01,2013-08-05 05:01:00,
2013-08-05 01:07:00,65.5,64.0,29.94,ENE,69,0.0,0.0,95,0.00,,---,0.00,VWS V14.01,2013-08-05 05:07:00,
2013-08-05 01:12:00,65.4,63.9,29.95,ENE,69,0.0,0.0,95,0.00,,---,0.00,VWS V14.01,2013-08-05 05:12:00,
2013-08-05 01:17:00,65.3,63.8,29.95,ENE,69,0.0,0.0,95,0.00,,---,0.00,VWS V14.01,2013-08-05 05:17:00,
2013-08-05 01:22:00,65.3,63.8,29.95,ENE,69,0.0,0.0,95,0.00,,---,0.00,VWS V14.01,2013-08-05 05:22:00,
2013-08-05 01:27:00,65.2,63.7,29.95,ENE,69,0.0,0.0,95,0.00,,---,0.00,VWS V14.01,2013-08-05 05:27:00,
2013-08-05 01:30:00,66.0,64.5,29.95,ENE,69,0.0,0.0,95,0.00,,---,0.00,VWS V14.01,2013-08-05 05:30:00,
2013-08-05 01:32:00,65.2,63.7,29.94,ENE,69,0.0,0.0,95,0.00,,---,0.00,VWS V14.01,2013-08-05 05:32:00,
2013-08-05 01:37:00,65.1,63.6,29.94,ENE,69,0.0,0.0,95,0.00,,---,0.00,VWS V14.01,2013-08-05 05:37:00,
2013-08-05 01:42:00,65.0,63.5,29.95,ENE,69,0.0,0.0,95,0.00,,---,0.00,VWS V14.01,2013-08-05 05:42:00,
2013-08-05 01:47:00,65.0,63.5,29.95,ENE,69,0.0,0.0,95,0.00,,---,0.00,VWS V14.01,2013-08-05 05:47:00,
2013-08-05 01:52:00,64.9,63.4,29.95,ENE,69,0.0,0.0,95,0.00,,---,0.00,VWS V14.01,2013-08-05 05:52:00,
2013-08-05 01:57:00,64.9,63.4,29.95,ENE,69,0.0,0.0,95,0.00,,---,0.00,VWS V14.01,2013-08-05 05:57:00,
2013-08-05 02:00:00,65.6,64.1,29.94,ENE,69,0.0,0.0,95,0.00,,---,0.00,VWS V14.01,2013-08-05 06:00:00,
2013-08-05 02:02:00,64.8,63.3,29.95,ENE,69,0.0,0.0,95,0.00,,---,0.00,VWS V14.01,2013-08-05 06:02:00,
2013-08-05 02:07:00,64.7,63.2,29.95,ENE,69,0.0,0.0,95,0.00,,---,0.00,VWS V14.01,2013-08-05 06:07:00,
2013-08-05 02:12:00,64.7,63.2,29.96,ENE,69,0.0,0.0,95,0.00,,---,0.00,VWS V14.01,2013-08-05 06:12:00,
2013-08-05 02:16:00,64.6,63.1,29.95,ENE,69,0.0,0.0,95,0.00,,---,0.00,VWS V14.01,2013-08-05 06:16:00,
2013-08-05 02:22:00,64.5,63.0,29.95,ENE,69,0.0,0.0,95,0.00,,---,0.00,VWS V14.01,2013-08-05 06:22:00,
2013-08-05 02:27:00,64.5,63.3,29.95,ENE,69,0.0,0.0,96,0.00,,---,0.00,VWS V14.01,2013-08-05 06:27:00,
2013-08-05 02:30:00,65.2,63.7,29.94,ENE,69,0.0,0.0,95,0.00,,---,0.00,VWS V14.01,2013-08-05 06:30:00,
2013-08-05 02:32:00,64.5,63.3,29.95,ENE,69,0.0,0.0,96,0.00,,---,0.00,VWS V14.01,2013-08-05 06:32:00,
2013-08-05 02:37:00,64.5,63.3,29.95,ENE,69,0.0,0.0,96,0.00,,---,0.00,VWS V14.01,2013-08-05 06:37:00,
2013-08-05 02:42:00,64.4,63.2,29.95,ENE,69,0.0,0.0,96,0.00,,---,0.00,VWS V14.01,2013-08-05 06:42:00,
2013-08-05 02:47:00,64.5,63.3,29.95,ENE,69,0.0,0.0,96,0.00,,---,0.00,VWS V14.01,2013-08-05 06:47:00,
2013-08-05 02:52:00,64.5,63.3,29.94,ENE,69,0.0,0.0,96,0.00,,---,0.00,VWS V14.01,2013-08-05 06:52:00,
2013-08-05 02:57:00,64.5,63.3,29.94,ENE,69,0.0,0.0,96,0.00,,---,0.00,VWS V14.01,2013-08-05 06:57:00,
2013-08-05 03:00:00,64.8,63.3,29.95,ENE,69,0.0,0.0,95,0.00,,---,0.00,VWS V14.01,2013-08-05 07:00:00,
2013-08-05 03:02:00,64.6,63.7,29.94,ENE,69,0.0,0.0,97,0.00,,---,0.00,VWS V14.01,2013-08-05 07:02:00,
2013-08-05 03:07:00,64.6,63.7,29.94,ENE,69,0.0,0.0,97,0.00,,---,0.00,VWS V14.01,2013-08-05 07:07:00,
2013-08-05 03:12:00,64.6,63.7,29.94,ENE,69,0.0,0.0,97,0.00,,---,0.00,VWS V14.01,2013-08-05 07:12:00,
2013-08-05 03:17:00,64.7,63.8,29.95,ENE,69,0.0,0.0,97,0.00,,---,0.00,VWS V14.01,2013-08-05 07:17:00,
2013-08-05 03:22:00,64.8,63.9,29.94,ENE,69,0.0,0.0,97,0.00,,---,0.00,VWS V14.01,2013-08-05 07:22:00,
2013-08-05 03:27:00,64.8,63.9,29.94,ENE,69,0.0,0.0,97,0.00,,---,0.00,VWS V14.01,2013-08-05 07:27:00,
2013-08-05 03:30:00,64.5,63.3,29.95,ENE,69,0.0,0.0,96,0.00,,---,0.00,VWS V14.01,2013-08-05 07:30:00,
2013-08-05 03:32:00,64.8,63.9,29.94,ENE,69,0.0,0.0,97,0.00,,---,0.00,VWS V14.01,2013-08-05 07:32:00,
2013-08-05 03:37:00,64.8,63.9,29.94,ENE,69,0.0,0.0,97,0.00,,---,0.00,VWS V14.01,2013-08-05 07:37:00,
2013-08-05 03:42:00,64.8,63.9,29.94,ENE,69,0.0,0.0,97,0.00,,---,0.00,VWS V14.01,2013-08-05 07:42:00,
2013-08-05 03:46:00,64.7,63.8,29.94,ENE,69,0.0,0.0,97,0.00,,---,0.00,VWS V14.01,2013-08-05 07:46:00,
2013-08-05 03:52:00,64.8,63.9,29.94,ENE,69,0.0,0.0,97,0.00,,---,0.00,VWS V14.01,2013-08-05 07:52:00,
2013-08-05 03:57:00,64.8,63.9,29.94,ENE,69,0.0,0.0,97,0.00,,---,0.00,VWS V14.01,2013-08-05 07:57:00,
2013-08-05 04:00:00,64.6,63.4,29.94,ENE,69,0.0,0.0,96,0.00,,---,0.00,VWS V14.01,2013-08-05 08:00:00,
2013-08-05 04:02:00,64.8,63.9,29.94,ENE,69,0.0,0.0,97,0.00,,---,0.00,VWS V14.01,2013-08-05 08:02:00,
2013-08-05 04:07:00,64.9,64.0,29.94,ENE,69,0.0,0.0,97,0.00,,---,0.00,VWS V14.01,2013-08-05 08:07:00,
2013-08-05 04:12:00,64.9,64.0,29.95,ENE,69,0.0,0.0,97,0.00,,---,0.00,VWS V14.01,2013-08-05 08:12:00,
2013-08-05 04:17:00,64.9,64.0,29.95,ENE,69,0.0,0.0,97,0.00,,---,0.00,VWS V14.01,2013-08-05 08:17:00,
2013-08-05 04:22:00,64.9,64.0,29.94,ENE,69,0.0,0.0,97,0.00,,---,0.00,VWS V14.01,2013-08-05 08:22:00,
2013-08-05 04:27:00,64.9,64.0,29.95,ENE,69,0.0,0.0,97,0.00,,---,0.00,VWS V14.01,2013-08-05 08:27:00,
2013-08-05 04:30:00,64.8,63.9,29.94,ENE,69,0.0,0.0,97,0.00,,---,0.00,VWS V14.01,2013-08-05 08:30:00,
2013-08-05 04:32:00,64.9,64.0,29.94,ENE,69,0.0,0.0,97,0.00,,---,0.00,VWS V14.01,2013-08-05 08:32:00,
2013-08-05 04:37:00,64.9,64.0,29.94,ENE,69,0.0,0.0,97,0.00,,---,0.00,VWS V14.01,2013-08-05 08:37:00,
2013-08-05 04:42:00,64.9,64.0,29.94,ENE,69,0.0,0.0,97,0.00,,---,0.00,VWS V14.01,2013-08-05 08:42:00,
2013-08-05 04:47:00,64.8,63.9,29.94,ENE,69,0.0,0.0,97,0.00,,---,0.00,VWS V14.01,2013-08-05 08:47:00,
2013-08-05 04:52:00,64.8,63.9,29.94,ENE,69,0.0,0.0,97,0.00,,---,0.00,VWS V14.01,2013-08-05 08:52:00,
2013-08-05 04:57:00,64.8,63.9,29.94,ENE,69,0.0,0.0,97,0.00,,---,0.00,VWS V14.01,2013-08-05 08:57:00,
2013-08-05 05:00:00,64.8,63.9,29.94,ENE,69,0.0,0.0,97,0.00,,---,0.00,VWS V14.01,2013-08-05 09:00:00,
2013-08-05 05:02:00,64.7,63.8,29.94,ENE,69,0.0,0.0,97,0.00,,---,0.00,VWS V14.01,2013-08-05 09:02:00,
2013-08-05 05:07:00,64.7,63.8,29.94,ENE,69,0.0,0.0,97,0.00,,---,0.00,VWS V14.01,2013-08-05 09:07:00,
2013-08-05 05:12:00,64.6,63.7,29.94,ENE,69,0.0,0.0,97,0.00,,---,0.00,VWS V14.01,2013-08-05 09:12:00,
2013-08-05 05:18:00,64.6,63.7,29.95,ENE,69,0.0,0.0,97,0.00,,---,0.00,VWS V14.01,2013-08-05 09:18:00,
2013-08-05 05:23:00,64.5,63.6,29.95,ENE,69,0.0,0.0,97,0.00,,---,0.00,VWS V14.01,2013-08-05 09:23:00,
2013-08-05 05:28:00,64.5,63.6,29.95,ENE,69,0.0,0.0,97,0.00,,---,0.00,VWS V14.01,2013-08-05 09:28:00,
2013-08-05 05:30:00,64.9,64.0,29.94,ENE,69,0.0,0.0,97,0.00,,---,0.00,VWS V14.01,2013-08-05 09:30:00,
2013-08-05 05:32:00,64.4,63.5,29.95,ENE,69,0.0,0.0,97,0.00,,---,0.00,VWS V14.01,2013-08-05 09:32:00,
2013-08-05 05:38:00,64.3,63.1,29.95,ENE,69,0.0,0.0,96,0.00,,---,0.00,VWS V14.01,2013-08-05 09:38:00,
2013-08-05 05:43:00,64.3,63.1,29.95,ENE,69,0.0,0.0,96,0.00,,---,0.00,VWS V14.01,2013-08-05 09:43:00,
2013-08-05 05:48:00,64.2,63.0,29.95,ENE,69,0.0,0.0,96,0.00,,---,0.00,VWS V14.01,2013-08-05 09:48:00,
2013-08-05 05:53:00,64.1,62.9,29.95,ENE,69,0.0,0.0,96,0.00,,---,0.00,VWS V14.01,2013-08-05 09:53:00,
2013-08-05 05:58:00,64.0,62.8,29.95,ENE,69,0.0,0.0,96,0.00,,---,0.00,VWS V14.01,2013-08-05 09:58:00,
2013-08-05 06:00:00,64.7,63.8,29.94,ENE,69,0.0,0.0,97,0.00,,---,0.00,VWS V14.01,2013-08-05 10:00:00,
2013-08-05 06:03:00,63.9,62.7,29.95,ENE,69,0.0,0.0,96,0.00,,---,0.00,VWS V14.01,2013-08-05 10:03:00,
2013-08-05 06:08:00,63.9,62.7,29.95,ENE,69,0.0,0.0,96,0.00,,---,0.00,VWS V14.01,2013-08-05 10:08:00,
2013-08-05 06:13:00,63.8,62.6,29.96,ENE,69,0.0,0.0,96,0.00,,---,0.00,VWS V14.01,2013-08-05 10:13:00,
2013-08-05 06:18:00,63.7,62.5,29.96,ENE,69,0.0,0.0,96,0.00,,---,0.00,VWS V14.01,2013-08-05 10:18:00,
2013-08-05 06:23:00,63.6,62.4,29.97,ENE,69,0.0,0.0,96,0.00,,---,0.00,VWS V14.01,2013-08-05 10:23:00,
2013-08-05 06:28:00,63.5,62.3,29.97,ENE,69,0.0,0.0,96,0.00,,---,0.00,VWS V14.01,2013-08-05 10:28:00,
2013-08-05 06:30:00,64.5,63.6,29.95,ENE,69,0.0,0.0,97,0.00,,---,0.00,VWS V14.01,2013-08-05 10:30:00,
2013-08-05 06:33:00,63.4,62.2,29.97,ENE,69,0.0,0.0,96,0.00,,---,0.00,VWS V14.01,2013-08-05 10:33:00,
2013-08-05 06:38:00,63.4,62.2,29.97,ENE,69,0.0,0.0,96,0.00,,---,0.00,VWS V14.01,2013-08-05 10:38:00,
2013-08-05 06:43:00,63.4,62.2,29.97,ENE,69,0.0,0.0,96,0.00,,---,0.00,VWS V14.01,2013-08-05 10:43:00,
2013-08-05 06:48:00,63.4,62.2,29.97,ENE,69,0.0,0.0,96,0.00,,---,0.00,VWS V14.01,2013-08-05 10:48:00,
2013-08-05 06:53:00,63.3,62.4,29.97,ENE,69,0.0,0.0,97,0.00,,---,0.00,VWS V14.01,2013-08-05 10:53:00,
2013-08-05 06:58:00,63.3,62.4,29.98,ENE,69,0.0,0.0,97,0.00,,---,0.00,VWS V14.01,2013-08-05 10:58:00,
2013-08-05 07:00:00,64.0,62.8,29.95,ENE,69,0.0,0.0,96,0.00,,---,0.00,VWS V14.01,2013-08-05 11:00:00,
2013-08-05 07:04:00,63.4,62.5,29.98,ENE,69,0.0,0.0,97,0.00,,---,0.00,VWS V14.01,2013-08-05 11:04:00,
2013-08-05 07:09:00,63.4,62.5,29.98,ENE,69,0.0,0.0,97,0.00,,---,0.00,VWS V14.01,2013-08-05 11:09:00,
2013-08-05 07:14:00,63.5,62.6,29.99,ENE,69,0.0,0.0,97,0.00,,---,0.00,VWS V14.01,2013-08-05 11:14:00,
2013-08-05 07:19:00,63.7,62.8,29.99,ENE,69,0.0,0.0,97,0.00,,---,0.00,VWS V14.01,2013-08-05 11:19:00,
2013-08-05 07:24:00,63.7,62.8,29.99,ENE,69,0.0,0.0,97,0.00,,---,0.00,VWS V14.01,2013-08-05 11:24:00,
2013-08-05 07:29:00,63.9,63.0,29.99,ENE,69,0.0,0.0,97,0.00,,---,0.00,VWS V14.01,2013-08-05 11:29:00,
2013-08-05 07:30:00,63.5,62.3,29.97,ENE,69,0.0,0.0,96,0.00,,---,0.00,VWS V14.01,2013-08-05 11:30:00,
2013-08-05 07:34:00,63.9,63.3,29.99,ENE,69,0.0,0.0,98,0.00,,---,0.00,VWS V14.01,2013-08-05 11:34:00,
2013-08-05 07:39:00,64.0,63.4,29.99,ENE,69,0.0,0.0,98,0.00,,---,0.00,VWS V14.01,2013-08-05 11:39:00,
2013-08-05 07:45:00,64.2,63.6,29.99,ENE,69,0.0,0.0,98,0.00,,---,0.00,VWS V14.01,2013-08-05 11:45:00,
2013-08-05 07:49:00,64.3,63.7,30.00,ENE,69,0.0,0.0,98,0.00,,---,0.00,VWS V14.01,2013-08-05 11:49:00,
2013-08-05 07:55:00,64.5,63.9,30.00,ENE,69,0.0,0.0,98,0.00,,---,0.00,VWS V14.01,2013-08-05 11:55:00,
2013-08-05 08:00:00,64.6,64.0,30.00,ENE,69,0.0,0.0,98,0.00,,---,0.00,VWS V14.01,2013-08-05 12:00:00,
2013-08-05 08:05:00,64.8,64.2,30.00,ENE,69,0.0,0.0,98,0.00,,---,0.00,VWS V14.01,2013-08-05 12:05:00,
2013-08-05 08:10:00,65.1,64.5,30.00,ENE,69,0.0,0.0,98,0.00,,---,0.00,VWS V14.01,2013-08-05 12:10:00,
2013-08-05 08:15:00,65.4,64.8,30.00,ENE,69,0.0,0.0,98,0.00,,---,0.00,VWS V14.01,2013-08-05 12:15:00,
2013-08-05 08:20:00,65.7,65.1,30.00,ENE,69,0.0,0.0,98,0.00,,---,0.00,VWS V14.01,2013-08-05 12:20:00,
2013-08-05 08:25:00,65.9,65.3,30.00,ENE,69,0.0,0.0,98,0.00,,---,0.00,VWS V14.01,2013-08-05 12:25:00,
2013-08-05 08:30:00,66.4,65.8,30.00,ENE,69,0.0,0.0,98,0.00,,---,0.00,VWS V14.01,2013-08-05 12:30:00,
2013-08-05 08:35:00,66.8,66.5,30.00,ENE,69,0.0,0.0,99,0.00,,---,0.00,VWS V14.01,2013-08-05 12:35:00,
2013-08-05 08:40:00,67.1,66.5,30.00,ENE,69,0.0,0.0,98,0.00,,---,0.00,VWS V14.01,2013-08-05 12:40:00,
2013-08-05 08:45:00,67.4,67.1,30.00,ENE,69,0.0,0.0,99,0.00,,---,0.00,VWS V14.01,2013-08-05 12:45:00,
2013-08-05 08:50:00,67.6,67.3,30.00,ENE,69,0.0,0.0,99,0.00,,---,0.00,VWS V14.01,2013-08-05 12:50:00,
2013-08-05 08:55:00,67.8,67.2,30.00,ENE,69,0.0,0.0,98,0.00,,---,0.00,VWS V14.01,2013-08-05 12:55:00,
2013-08-05 09:00:00,68.0,67.7,30.00,ENE,69,0.0,0.0,99,0.00,,---,0.00,VWS V14.01,2013-08-05 13:00:00,
2013-08-05 09:05:00,68.3,68.0,30.00,ENE,69,0.0,0.0,99,0.00,,---,0.00,VWS V14.01,2013-08-05 13:05:00,
2013-08-05 09:10:00,68.6,68.3,30.00,ENE,69,0.0,0.0,99,0.00,,---,0.00,VWS V14.01,2013-08-05 13:10:00,
2013-08-05 09:15:00,68.9,68.6,30.00,ENE,69,0.0,0.0,99,0.00,,---,0.00,VWS V14.01,2013-08-05 13:15:00,
2013-08-05 09:20:00,69.0,68.7,30.00,ENE,69,0.0,0.0,99,0.00,,---,0.00,VWS V14.01,2013-08-05 13:20:00,
2013-08-05 09:25:00,69.2,68.6,30.00,ENE,69,0.0,0.0,98,0.00,,---,0.00,VWS V14.01,2013-08-05 13:25:00,
2013-08-05 09:30:00,69.7,69.1,29.99,ENE,69,0.0,0.0,98,0.00,,---,0.00,VWS V14.01,2013-08-05 13:30:00,
2013-08-05 09:35:00,69.8,68.9,30.00,ENE,72,1.0,3.0,97,0.00,,---,0.00,VWS V14.01,2013-08-05 13:35:00,
2013-08-05 09:40:00,70.5,67.1,30.00,ESE,103,0.0,4.0,89,0.00,,---,0.00,VWS V14.01,2013-08-05 13:40:00,
2013-08-05 09:45:00,71.2,67.8,30.00,ESE,103,0.0,4.0,89,0.00,,---,0.00,VWS V14.01,2013-08-05 13:45:00,
2013-08-05 09:50:00,72.0,68.3,30.00,ESE,103,1.0,4.0,88,0.00,,---,0.00,VWS V14.01,2013-08-05 13:50:00,
2013-08-05 09:55:00,72.5,68.4,30.00,ESE,103,1.0,4.0,87,0.00,,---,0.00,VWS V14.01,2013-08-05 13:55:00,
2013-08-05 10:00:00,73.0,67.9,30.00,ESE,103,2.0,2.0,84,0.00,,---,0.00,VWS V14.01,2013-08-05 14:00:00,
2013-08-05 10:05:00,73.6,66.7,30.00,East,96,1.0,4.0,79,0.00,,---,0.00,VWS V14.01,2013-08-05 14:05:00,
2013-08-05 10:10:00,74.2,67.6,30.00,East,100,1.0,4.0,80,0.00,,---,0.00,VWS V14.01,2013-08-05 14:10:00,
2013-08-05 10:15:00,74.7,68.1,30.00,East,98,0.0,4.0,80,0.00,,---,0.00,VWS V14.01,2013-08-05 14:15:00,
2013-08-05 10:20:00,75.0,67.3,30.00,East,98,0.0,4.0,77,0.00,,---,0.00,VWS V14.01,2013-08-05 14:20:00,
2013-08-05 10:25:00,75.4,69.5,30.00,East,98,0.0,4.0,82,0.00,,---,0.00,VWS V14.01,2013-08-05 14:25:00,
2013-08-05 10:30:00,75.9,68.9,30.00,East,98,0.0,0.0,79,0.00,,---,0.00,VWS V14.01,2013-08-05 14:30:00,
2013-08-05 10:36:00,76.5,69.9,30.00,NE,55,2.0,3.0,80,0.00,,---,0.00,VWS V14.01,2013-08-05 14:36:00,
2013-08-05 10:41:00,77.1,68.2,30.00,ENE,58,0.0,4.0,74,0.00,,---,0.00,VWS V14.01,2013-08-05 14:41:00,
2013-08-05 10:46:00,77.6,67.1,30.00,ENE,58,0.0,4.0,70,0.00,,---,0.00,VWS V14.01,2013-08-05 14:46:00,
2013-08-05 10:51:00,78.0,67.4,30.00,East,92,0.0,4.0,70,0.00,,---,0.00,VWS V14.01,2013-08-05 14:51:00,
2013-08-05 10:56:00,78.5,67.1,30.00,North,350,0.0,4.0,68,0.00,,---,0.00,VWS V14.01,2013-08-05 14:56:00,
2013-08-05 11:00:00,73.0,67.9,30.00,ESE,103,1.0,4.0,84,0.00,,---,0.00,VWS V14.01,2013-08-05 15:00:00,
2013-08-05 11:01:00,78.7,67.7,30.01,NNE,22,0.0,0.0,69,0.00,,---,0.00,VWS V14.01,2013-08-05 15:01:00,
2013-08-05 11:06:00,79.1,66.8,30.00,NE,38,0.0,3.0,66,0.00,,---,0.00,VWS V14.01,2013-08-05 15:06:00,
2013-08-05 11:11:00,79.4,67.9,30.00,NE,38,0.0,3.0,68,0.00,,---,0.00,VWS V14.01,2013-08-05 15:11:00,
2013-08-05 11:16:00,79.7,66.5,30.01,NE,39,0.0,3.0,64,0.00,,---,0.00,VWS V14.01,2013-08-05 15:16:00,
2013-08-05 11:22:00,80.0,65.4,30.01,NE,47,3.0,3.0,61,0.00,,---,0.00,VWS V14.01,2013-08-05 15:22:00,
2013-08-05 11:27:00,80.0,64.9,30.01,NE,42,0.0,5.0,60,0.00,,---,0.00,VWS V14.01,2013-08-05 15:27:00,
2013-08-05 11:30:00,75.8,68.8,30.00,East,98,0.0,4.0,79,0.00,,---,0.00,VWS V14.01,2013-08-05 15:30:00,
2013-08-05 11:32:00,80.0,67.2,30.01,North,5,0.0,2.0,65,0.00,,---,0.00,VWS V14.01,2013-08-05 15:32:00,
2013-08-05 11:37:00,79.8,67.4,30.01,NNW,344,0.0,3.0,66,0.00,,---,0.00,VWS V14.01,2013-08-05 15:37:00,
2013-08-05 11:42:00,79.6,68.1,30.01,NNW,344,1.0,3.0,68,0.00,,---,0.00,VWS V14.01,2013-08-05 15:42:00,
2013-08-05 11:47:00,79.5,65.3,30.01,North,9,0.0,3.0,62,0.00,,---,0.00,VWS V14.01,2013-08-05 15:47:00,
2013-08-05 11:52:00,79.6,65.4,30.00,West,277,3.0,3.0,62,0.00,,---,0.00,VWS V14.01,2013-08-05 15:52:00,
2013-08-05 11:56:00,79.9,65.3,30.00,NW,318,1.0,3.0,61,0.00,,---,0.00,VWS V14.01,2013-08-05 15:56:00,
2013-08-05 12:00:00,78.7,66.8,30.00,NNE,22,0.0,4.0,67,0.00,,---,0.00,VWS V14.01,2013-08-05 16:00:00,
2013-08-05 12:02:00,80.3,65.6,30.00,NNW,338,2.0,3.0,61,0.00,,---,0.00,VWS V14.01,2013-08-05 16:02:00,
2013-08-05 12:07:00,80.5,67.7,30.00,East,85,2.0,4.0,65,0.00,,---,0.00,VWS V14.01,2013-08-05 16:07:00,
2013-08-05 12:12:00,80.5,67.7,30.00,East,85,0.0,4.0,65,0.00,,---,0.00,VWS V14.01,2013-08-05 16:12:00,
2013-08-05 12:16:00,80.5,67.7,30.00,East,85,2.0,4.0,65,0.00,,---,0.00,VWS V14.01,2013-08-05 16:16:00,
2013-08-05 12:22:00,80.3,66.1,30.00,ENE,57,1.0,5.0,62,0.00,,---,0.00,VWS V14.01,2013-08-05 16:22:00,
2013-08-05 12:26:00,80.2,66.0,30.00,NE,49,0.0,5.0,62,0.00,,---,0.00,VWS V14.01,2013-08-05 16:26:00,
2013-08-05 12:30:00,80.0,66.3,30.01,North,5,0.0,5.0,63,0.00,,---,0.00,VWS V14.01,2013-08-05 16:30:00,
2013-08-05 12:32:00,80.2,66.0,30.00,NE,51,0.0,3.0,62,0.00,,---,0.00,VWS V14.01,2013-08-05 16:32:00,
2013-08-05 12:36:00,80.1,68.2,30.00,NE,51,0.0,3.0,67,0.00,,---,0.00,VWS V14.01,2013-08-05 16:36:00,
2013-08-05 12:42:00,80.3,67.9,30.00,East,90,1.0,5.0,66,0.00,,---,0.00,VWS V14.01,2013-08-05 16:42:00,
2013-08-05 12:47:00,80.7,67.4,29.99,WNW,288,0.0,5.0,64,0.00,,---,0.00,VWS V14.01,2013-08-05 16:47:00,
2013-08-05 12:52:00,81.0,67.7,29.99,WNW,296,0.0,5.0,64,0.00,,---,0.00,VWS V14.01,2013-08-05 16:52:00,
2013-08-05 12:57:00,81.2,65.5,29.99,WNW,291,0.0,6.0,59,0.00,,---,0.00,VWS V14.01,2013-08-05 16:57:00,
2013-08-05 13:00:00,80.2,67.4,30.00,NNW,335,2.0,3.0,65,0.00,,---,0.00,VWS V14.01,2013-08-05 17:00:00,
2013-08-05 13:02:00,81.2,66.0,29.99,WNW,295,1.0,2.0,60,0.00,,---,0.00,VWS V14.01,2013-08-05 17:02:00,
2013-08-05 13:07:00,81.4,67.6,29.99,NW,305,0.0,2.0,63,0.00,,---,0.00,VWS V14.01,2013-08-05 17:07:00,
2013-08-05 13:12:00,81.4,65.7,29.99,NNW,348,0.0,6.0,59,0.00,,---,0.00,VWS V14.01,2013-08-05 17:12:00,
2013-08-05 13:17:00,81.2,65.5,29.99,NNW,346,0.0,6.0,59,0.00,,---,0.00,VWS V14.01,2013-08-05 17:17:00,
2013-08-05 13:22:00,81.0,65.3,29.98,NNW,337,0.0,6.0,59,0.00,,---,0.00,VWS V14.01,2013-08-05 17:22:00,
2013-08-05 13:27:00,81.0,67.2,29.98,NNW,337,0.0,6.0,63,0.00,,---,0.00,VWS V14.01,2013-08-05 17:27:00,
2013-08-05 13:30:00,80.2,66.0,30.00,NE,51,0.0,5.0,62,0.00,,---,0.00,VWS V14.01,2013-08-05 17:30:00,
2013-08-05 13:32:00,81.2,66.0,29.98,NNW,337,0.0,1.0,60,0.00,,---,0.00,VWS V14.01,2013-08-05 17:32:00,
2013-08-05 13:37:00,81.5,65.8,29.98,NE,43,1.0,2.0,59,0.00,,---,0.00,VWS V14.01,2013-08-05 17:37:00,
2013-08-05 13:42:00,81.6,68.2,29.98,NE,43,0.0,2.0,64,0.00,,---,0.00,VWS V14.01,2013-08-05 17:42:00,
2013-08-05 13:47:00,82.0,67.2,29.97,West,267,1.0,2.0,61,0.00,,---,0.00,VWS V14.01,2013-08-05 17:47:00,
2013-08-05 13:52:00,82.3,68.5,29.97,West,259,1.0,6.0,63,0.00,,---,0.00,VWS V14.01,2013-08-05 17:52:00,
2013-08-05 13:57:00,82.5,65.8,29.97,North,5,1.0,7.0,57,0.00,,---,0.00,VWS V14.01,2013-08-05 17:57:00,
2013-08-05 14:00:00,81.1,65.9,29.99,WNW,291,0.0,6.0,60,0.00,,---,0.00,VWS V14.01,2013-08-05 18:00:00,
2013-08-05 14:02:00,82.5,65.2,29.97,North,5,0.0,1.0,56,0.00,,---,0.00,VWS V14.01,2013-08-05 18:02:00,
2013-08-05 14:07:00,82.9,66.6,29.97,North,350,0.0,2.0,58,0.00,,---,0.00,VWS V14.01,2013-08-05 18:07:00,
2013-08-05 14:12:00,82.9,69.0,29.97,WNW,299,0.0,4.0,63,0.00,,---,0.00,VWS V14.01,2013-08-05 18:12:00,
2013-08-05 14:17:00,82.9,66.1,29.97,WNW,299,0.0,4.0,57,0.00,,---,0.00,VWS V14.01,2013-08-05 18:17:00,
2013-08-05 14:22:00,83.1,68.7,29.96,WNW,287,1.0,4.0,62,0.00,,---,0.00,VWS V14.01,2013-08-05 18:22:00,
2013-08-05 14:27:00,83.4,68.1,29.96,NNW,339,1.0,4.0,60,0.00,,---,0.00,VWS V14.01,2013-08-05 18:27:00,
2013-08-05 14:30:00,81.1,65.9,29.98,NNW,337,1.0,6.0,60,0.00,,---,0.00,VWS V14.01,2013-08-05 18:30:00,
2013-08-05 14:32:00,83.7,67.9,29.96,West,259,1.0,1.0,59,0.00,,---,0.00,VWS V14.01,2013-08-05 18:32:00,
2013-08-05 14:37:00,83.8,67.0,29.96,NE,42,0.0,4.0,57,0.00,,---,0.00,VWS V14.01,2013-08-05 18:37:00,
2013-08-05 14:42:00,83.7,66.3,29.95,WNW,291,1.0,5.0,56,0.00,,---,0.00,VWS V14.01,2013-08-05 18:42:00,
2013-08-05 14:47:00,83.3,69.4,29.95,West,281,0.0,5.0,63,0.00,,---,0.00,VWS V14.01,2013-08-05 18:47:00,
2013-08-05 14:53:00,83.0,68.2,29.95,West,281,0.0,5.0,61,0.00,,---,0.00,VWS V14.01,2013-08-05 18:53:00,
2013-08-05 14:58:00,82.9,68.6,29.94,NNW,336,0.0,5.0,62,0.00,,---,0.00,VWS V14.01,2013-08-05 18:58:00,
2013-08-05 15:00:00,82.5,66.7,29.97,North,5,1.0,7.0,59,0.00,,---,0.00,VWS V14.01,2013-08-05 19:00:00,
2013-08-05 15:03:00,82.9,66.1,29.95,NE,38,0.0,2.0,57,0.00,,---,0.00,VWS V14.01,2013-08-05 19:03:00,
2013-08-05 15:08:00,82.8,66.5,29.94,NE,38,0.0,3.0,58,0.00,,---,0.00,VWS V14.01,2013-08-05 19:08:00,
2013-08-05 15:13:00,82.9,70.4,29.94,North,5,0.0,3.0,66,0.00,,---,0.00,VWS V14.01,2013-08-05 19:13:00,
2013-08-05 15:18:00,82.9,67.6,29.94,WNW,288,2.0,4.0,60,0.00,,---,0.00,VWS V14.01,2013-08-05 19:18:00,
2013-08-05 15:23:00,82.9,66.6,29.94,WNW,284,2.0,4.0,58,0.00,,---,0.00,VWS V14.01,2013-08-05 19:23:00,
2013-08-05 15:28:00,83.0,68.7,29.94,WNW,284,0.0,4.0,62,0.00,,---,0.00,VWS V14.01,2013-08-05 19:28:00,
2013-08-05 15:30:00,83.5,65.7,29.96,West,259,0.0,4.0,55,0.00,,---,0.00,VWS V14.01,2013-08-05 19:30:00,
2013-08-05 15:33:00,83.1,66.3,29.94,WNW,292,0.0,3.0,57,0.00,,---,0.00,VWS V14.01,2013-08-05 19:33:00,
2013-08-05 15:38:00,83.3,66.5,29.94,NE,56,1.0,4.0,57,0.00,,---,0.00,VWS V14.01,2013-08-05 19:38:00,
2013-08-05 15:43:00,83.2,67.9,29.93,East,96,0.0,4.0,60,0.00,,---,0.00,VWS V14.01,2013-08-05 19:43:00,
2013-08-05 15:48:00,83.3,67.5,29.93,NNE,26,0.0,4.0,59,0.00,,---,0.00,VWS V14.01,2013-08-05 19:48:00,
2013-08-05 15:53:00,83.6,67.3,29.94,ENE,67,1.0,4.0,58,0.00,,---,0.00,VWS V14.01,2013-08-05 19:53:00,
2013-08-05 15:58:00,83.5,69.1,29.94,ENE,67,1.0,4.0,62,0.00,,---,0.00,VWS V14.01,2013-08-05 19:58:00,
2013-08-05 16:00:00,82.9,68.6,29.94,NE,39,0.0,5.0,62,0.00,,---,0.00,VWS V14.01,2013-08-05 20:00:00,
2013-08-05 16:04:00,83.2,67.9,29.93,NNE,12,0.0,2.0,60,0.00,,---,0.00,VWS V14.01,2013-08-05 20:04:00,
2013-08-05 16:09:00,82.9,69.9,29.93,NNE,12,0.0,2.0,65,0.00,,---,0.00,VWS V14.01,2013-08-05 20:09:00,
2013-08-05 16:13:00,82.7,70.2,29.93,NNE,12,0.0,2.0,66,0.00,,---,0.00,VWS V14.01,2013-08-05 20:13:00,
2013-08-05 16:18:00,82.5,68.6,29.93,NNE,12,0.0,2.0,63,0.00,,---,0.00,VWS V14.01,2013-08-05 20:18:00,
2013-08-05 16:19:00,82.5,68.6,29.93,NNE,12,0.0,2.0,63,0.00,,---,0.00,VWS V14.01,2013-08-05 20:19:00,
2013-08-05 16:24:00,82.5,71.3,29.93,NNE,12,0.0,2.0,69,0.00,,---,0.00,VWS V14.01,2013-08-05 20:24:00,
2013-08-05 16:29:00,82.7,68.4,29.93,NNE,13,0.0,2.0,62,0.00,,---,0.00,VWS V14.01,2013-08-05 20:29:00,
2013-08-05 16:30:00,83.0,67.7,29.94,WNW,288,0.0,4.0,60,0.00,,---,0.00,VWS V14.01,2013-08-05 20:30:00,
2013-08-05 16:34:00,83.1,70.1,29.93,NNE,13,0.0,1.0,65,0.00,,---,0.00,VWS V14.01,2013-08-05 20:34:00,
2013-08-05 16:39:00,83.5,70.5,29.93,WNW,294,0.0,3.0,65,0.00,,---,0.00,VWS V14.01,2013-08-05 20:39:00,
2013-08-05 16:44:00,83.8,68.4,29.93,NW,308,1.0,3.0,60,0.00,,---,0.00,VWS V14.01,2013-08-05 20:44:00,
2013-08-05 16:49:00,83.9,69.0,29.93,WNW,296,2.0,3.0,61,0.00,,---,0.00,VWS V14.01,2013-08-05 20:49:00,
2013-08-05 16:54:00,83.8,68.9,29.93,WNW,287,0.0,3.0,61,0.00,,---,0.00,VWS V14.01,2013-08-05 20:54:00,
2013-08-05 17:00:00,83.6,70.1,29.93,WNW,287,0.0,3.0,64,0.00,,---,0.00,VWS V14.01,2013-08-05 21:00:00,
2013-08-05 17:05:00,83.2,71.1,29.93,WNW,287,0.0,1.0,67,0.00,,---,0.00,VWS V14.01,2013-08-05 21:05:00,
2013-08-05 17:10:00,83.0,71.8,29.93,WNW,287,0.0,1.0,69,0.00,,---,0.00,VWS V14.01,2013-08-05 21:10:00,
2013-08-05 17:15:00,82.9,72.5,29.93,WNW,287,0.0,1.0,71,0.00,,---,0.00,VWS V14.01,2013-08-05 21:15:00,
2013-08-05 17:20:00,82.7,69.8,29.92,WNW,287,0.0,1.0,65,0.00,,---,0.00,VWS V14.01,2013-08-05 21:20:00,
2013-08-05 17:25:00,82.5,70.9,29.93,WNW,287,0.0,1.0,68,0.00,,---,0.00,VWS V14.01,2013-08-05 21:25:00,
2013-08-05 17:30:00,82.4,72.1,29.92,WNW,287,0.0,1.0,71,0.00,,---,0.00,VWS V14.01,2013-08-05 21:30:00,
2013-08-05 17:35:00,82.3,72.0,29.92,WNW,287,0.0,0.0,71,0.00,,---,0.00,VWS V14.01,2013-08-05 21:35:00,
2013-08-05 17:40:00,82.0,72.1,29.92,WNW,287,0.0,0.0,72,0.00,,---,0.00,VWS V14.01,2013-08-05 21:40:00,
2013-08-05 17:45:00,81.8,71.5,29.92,WNW,287,0.0,0.0,71,0.00,,---,0.00,VWS V14.01,2013-08-05 21:45:00,
2013-08-05 17:50:00,81.6,70.9,29.92,WNW,287,0.0,1.0,70,0.00,,---,0.00,VWS V14.01,2013-08-05 21:50:00,
2013-08-05 17:55:00,81.4,69.8,29.92,WNW,287,0.0,1.0,68,0.00,,---,0.00,VWS V14.01,2013-08-05 21:55:00,
2013-08-05 18:00:00,81.4,70.3,29.91,WNW,290,0.0,3.0,69,0.00,,---,0.00,VWS V14.01,2013-08-05 22:00:00,
2013-08-05 18:05:00,81.2,71.3,29.92,WNW,290,0.0,1.0,72,0.00,,---,0.00,VWS V14.01,2013-08-05 22:05:00,
2013-08-05 18:10:00,81.2,71.3,29.92,WNW,290,0.0,1.0,72,0.00,,---,0.00,VWS V14.01,2013-08-05 22:10:00,
2013-08-05 18:15:00,81.0,71.5,29.92,WNW,290,0.0,1.0,73,0.00,,---,0.00,VWS V14.01,2013-08-05 22:15:00,
2013-08-05 18:20:00,80.8,72.1,29.92,WNW,290,0.0,1.0,75,0.00,,---,0.00,VWS V14.01,2013-08-05 22:20:00,
2013-08-05 18:25:00,80.7,72.4,29.92,WNW,290,0.0,1.0,76,0.00,,---,0.00,VWS V14.01,2013-08-05 22:25:00,
2013-08-05 18:30:00,82.3,72.0,29.92,WNW,287,0.0,1.0,71,0.00,,---,0.00,VWS V14.01,2013-08-05 22:30:00,
2013-08-05 18:31:00,80.5,72.6,29.92,WNW,290,0.0,0.0,77,0.00,,---,0.00,VWS V14.01,2013-08-05 22:31:00,
2013-08-05 18:36:00,80.3,72.8,29.92,WNW,290,0.0,0.0,78,0.00,,---,0.00,VWS V14.01,2013-08-05 22:36:00,
2013-08-05 18:41:00,80.2,73.1,29.92,WNW,290,0.0,0.0,79,0.00,,---,0.00,VWS V14.01,2013-08-05 22:41:00,
2013-08-05 18:46:00,79.9,72.8,29.91,WNW,290,0.0,0.0,79,0.00,,---,0.00,VWS V14.01,2013-08-05 22:46:00,
2013-08-05 18:51:00,79.7,73.4,29.92,WNW,290,0.0,0.0,81,0.00,,---,0.00,VWS V14.01,2013-08-05 22:51:00,
2013-08-05 18:56:00,79.5,73.5,29.91,WNW,290,0.0,0.0,82,0.00,,---,0.00,VWS V14.01,2013-08-05 22:56:00,
2013-08-05 19:00:00,81.4,70.3,29.91,WNW,290,0.0,3.0,69,0.00,,---,0.00,VWS V14.01,2013-08-05 23:00:00,
2013-08-05 19:01:00,79.3,73.3,29.91,WNW,290,0.0,0.0,82,0.00,,---,0.00,VWS V14.01,2013-08-05 23:01:00,
2013-08-05 19:06:00,79.0,73.4,29.91,WNW,290,0.0,0.0,83,0.00,,---,0.00,VWS V14.01,2013-08-05 23:06:00,
2013-08-05 19:11:00,78.8,73.2,29.92,WNW,290,0.0,0.0,83,0.00,,---,0.00,VWS V14.01,2013-08-05 23:11:00,
2013-08-05 19:16:00,78.5,72.6,29.92,WNW,290,0.0,0.0,82,0.00,,---,0.00,VWS V14.01,2013-08-05 23:16:00,
2013-08-05 19:22:00,78.1,71.4,29.92,WNW,290,0.0,0.0,80,0.00,,---,0.00,VWS V14.01,2013-08-05 23:22:00,
2013-08-05 19:27:00,78.0,71.3,29.91,WNW,290,0.0,0.0,80,0.00,,---,0.00,VWS V14.01,2013-08-05 23:27:00,
2013-08-05 19:30:00,80.5,72.6,29.92,WNW,290,0.0,1.0,77,0.00,,---,0.00,VWS V14.01,2013-08-05 23:30:00,
2013-08-05 19:32:00,77.9,72.3,29.91,WNW,290,0.0,0.0,83,0.00,,---,0.00,VWS V14.01,2013-08-05 23:32:00,
2013-08-05 19:37:00,77.8,72.9,29.92,WNW,290,0.0,0.0,85,0.00,,---,0.00,VWS V14.01,2013-08-05 23:37:00,
2013-08-05 19:42:00,77.7,72.8,29.92,WNW,290,0.0,0.0,85,0.00,,---,0.00,VWS V14.01,2013-08-05 23:42:00,
2013-08-05 19:47:00,77.4,72.2,29.92,WNW,290,0.0,0.0,84,0.00,,---,0.00,VWS V14.01,2013-08-05 23:47:00,
2013-08-05 19:52:00,77.2,72.3,29.92,WNW,290,0.0,0.0,85,0.00,,---,0.00,VWS V14.01,2013-08-05 23:52:00,
2013-08-05 19:57:00,76.9,71.7,29.92,WNW,290,0.0,0.0,84,0.00,,---,0.00,VWS V14.01,2013-08-05 23:57:00,
2013-08-05 20:00:00,79.3,73.3,29.91,WNW,290,0.0,0.0,82,0.00,,---,0.00,VWS V14.01,2013-08-06 00:00:00,
2013-08-05 20:02:00,76.7,71.9,29.92,WNW,290,0.0,0.0,85,0.00,,---,0.00,VWS V14.01,2013-08-06 00:02:00,
2013-08-05 20:07:00,76.4,71.9,29.92,WNW,290,0.0,0.0,86,0.00,,---,0.00,VWS V14.01,2013-08-06 00:07:00,
2013-08-05 20:12:00,76.0,71.9,29.92,WNW,290,0.0,0.0,87,0.00,,---,0.00,VWS V14.01,2013-08-06 00:12:00,
2013-08-05 20:18:00,75.7,71.6,29.92,WNW,290,0.0,0.0,87,0.00,,---,0.00,VWS V14.01,2013-08-06 00:18:00,
2013-08-05 20:23:00,75.4,71.3,29.92,WNW,290,0.0,0.0,87,0.00,,---,0.00,VWS V14.01,2013-08-06 00:23:00,
2013-08-05 20:28:00,75.1,71.3,29.92,WNW,290,0.0,0.0,88,0.00,,---,0.00,VWS V14.01,2013-08-06 00:28:00,
2013-08-05 20:30:00,77.9,71.6,29.91,WNW,290,0.0,0.0,81,0.00,,---,0.00,VWS V14.01,2013-08-06 00:30:00,
2013-08-05 20:33:00,74.8,71.3,29.92,WNW,290,0.0,0.0,89,0.00,,---,0.00,VWS V14.01,2013-08-06 00:33:00,
2013-08-05 20:38:00,74.6,71.2,29.92,WNW,290,0.0,0.0,89,0.00,,---,0.00,VWS V14.01,2013-08-06 00:38:00,
2013-08-05 20:43:00,74.3,70.8,29.92,WNW,290,0.0,0.0,89,0.00,,---,0.00,VWS V14.01,2013-08-06 00:43:00,
2013-08-05 20:48:00,74.1,70.7,29.92,WNW,290,0.0,0.0,89,0.00,,---,0.00,VWS V14.01,2013-08-06 00:48:00,
2013-08-05 20:53:00,73.9,70.5,29.93,WNW,290,0.0,0.0,89,0.00,,---,0.00,VWS V14.01,2013-08-06 00:53:00,
2013-08-05 20:58:00,73.6,70.5,29.93,WNW,290,0.0,0.0,90,0.00,,---,0.00,VWS V14.01,2013-08-06 00:58:00,
2013-08-05 21:00:00,76.7,71.5,29.92,WNW,290,0.0,0.0,84,0.00,,---,0.00,VWS V14.01,2013-08-06 01:00:00,
2013-08-05 21:03:00,73.4,70.3,29.93,WNW,290,0.0,0.0,90,0.00,,---,0.00,VWS V14.01,2013-08-06 01:03:00,
2013-08-05 21:09:00,73.1,70.3,29.93,WNW,290,0.0,0.0,91,0.00,,---,0.00,VWS V14.01,2013-08-06 01:09:00,
2013-08-05 21:14:00,73.0,70.2,29.93,WNW,290,0.0,0.0,91,0.00,,---,0.00,VWS V14.01,2013-08-06 01:14:00,
2013-08-05 21:19:00,72.8,70.3,29.93,WNW,290,0.0,0.0,92,0.00,,---,0.00,VWS V14.01,2013-08-06 01:19:00,
2013-08-05 21:24:00,72.6,70.2,29.93,WNW,290,0.0,0.0,92,0.00,,---,0.00,VWS V14.01,2013-08-06 01:24:00,
2013-08-05 21:29:00,72.6,70.2,29.93,WNW,290,0.0,0.0,92,0.00,,---,0.00,VWS V14.01,2013-08-06 01:29:00,
2013-08-05 21:30:00,75.0,71.5,29.92,WNW,290,0.0,0.0,89,0.00,,---,0.00,VWS V14.01,2013-08-06 01:30:00,
2013-08-05 21:34:00,72.4,69.9,29.93,WNW,290,0.0,0.0,92,0.00,,---,0.00,VWS V14.01,2013-08-06 01:34:00,
2013-08-05 21:39:00,72.2,70.1,29.93,WNW,290,0.0,0.0,93,0.00,,---,0.00,VWS V14.01,2013-08-06 01:39:00,
2013-08-05 21:44:00,72.2,70.1,29.93,WNW,290,0.0,0.0,93,0.00,,---,0.00,VWS V14.01,2013-08-06 01:44:00,
2013-08-05 21:49:00,72.0,69.9,29.93,WNW,290,0.0,0.0,93,0.00,,---,0.00,VWS V14.01,2013-08-06 01:49:00,
2013-08-05 21:54:00,71.9,69.8,29.93,WNW,290,0.0,0.0,93,0.00,,---,0.00,VWS V14.01,2013-08-06 01:54:00,
2013-08-05 21:59:00,71.8,69.7,29.94,WNW,290,0.0,0.0,93,0.00,,---,0.00,VWS V14.01,2013-08-06 01:59:00,
2013-08-05 22:00:00,73.5,70.4,29.93,WNW,290,0.0,0.0,90,0.00,,---,0.00,VWS V14.01,2013-08-06 02:00:00,
2013-08-05 22:04:00,71.7,69.9,29.94,WNW,290,0.0,0.0,94,0.00,,---,0.00,VWS V14.01,2013-08-06 02:04:00,
2013-08-05 22:09:00,71.6,69.8,29.94,WNW,290,0.0,0.0,94,0.00,,---,0.00,VWS V14.01,2013-08-06 02:09:00,
2013-08-05 22:14:00,71.6,69.8,29.94,WNW,290,0.0,0.0,94,0.00,,---,0.00,VWS V14.01,2013-08-06 02:14:00,
2013-08-05 22:19:00,71.5,69.7,29.94,WNW,290,0.0,0.0,94,0.00,,---,0.00,VWS V14.01,2013-08-06 02:19:00,
2013-08-05 22:24:00,71.5,69.7,29.94,WNW,290,0.0,0.0,94,0.00,,---,0.00,VWS V14.01,2013-08-06 02:24:00,
2013-08-05 22:30:00,71.4,69.6,29.93,WNW,290,0.0,0.0,94,0.00,,---,0.00,VWS V14.01,2013-08-06 02:30:00,
2013-08-05 22:35:00,71.4,69.6,29.93,WNW,290,0.0,0.0,94,0.00,,---,0.00,VWS V14.01,2013-08-06 02:35:00,
2013-08-05 22:40:00,71.3,69.5,29.94,WNW,290,0.0,0.0,94,0.00,,---,0.00,VWS V14.01,2013-08-06 02:40:00,
2013-08-05 22:45:00,71.2,69.4,29.94,WNW,290,0.0,0.0,94,0.00,,---,0.00,VWS V14.01,2013-08-06 02:45:00,
2013-08-05 22:50:00,71.1,69.3,29.94,WNW,290,0.0,0.0,94,0.00,,---,0.00,VWS V14.01,2013-08-06 02:50:00,
2013-08-05 22:55:00,71.1,69.6,29.93,WNW,290,0.0,0.0,95,0.00,,---,0.00,VWS V14.01,2013-08-06 02:55:00,
2013-08-05 23:00:00,71.8,69.7,29.94,WNW,290,0.0,0.0,93,0.00,,---,0.00,VWS V14.01,2013-08-06 03:00:00,
2013-08-05 23:01:00,71.0,69.5,29.93,WNW,290,0.0,0.0,95,0.00,,---,0.00,VWS V14.01,2013-08-06 03:01:00,
2013-08-05 23:06:00,71.0,69.5,29.94,WNW,290,0.0,0.0,95,0.00,,---,0.00,VWS V14.01,2013-08-06 03:06:00,
2013-08-05 23:11:00,71.0,69.5,29.93,WNW,290,0.0,0.0,95,0.00,,---,0.00,VWS V14.01,2013-08-06 03:11:00,
2013-08-05 23:16:00,70.9,69.4,29.93,WNW,290,0.0,0.0,95,0.00,,---,0.00,VWS V14.01,2013-08-06 03:16:00,
2013-08-05 23:21:00,70.9,69.4,29.93,WNW,290,0.0,0.0,95,0.00,,---,0.00,VWS V14.01,2013-08-06 03:21:00,
2013-08-05 23:26:00,70.9,69.4,29.93,WNW,290,0.0,0.0,95,0.00,,---,0.00,VWS V14.01,2013-08-06 03:26:00,
2013-08-05 23:30:00,71.4,69.6,29.93,WNW,290,0.0,0.0,94,0.00,,---,0.00,VWS V14.01,2013-08-06 03:30:00,
2013-08-05 23:31:00,70.8,69.0,29.93,WNW,290,0.0,0.0,94,0.00,,---,0.00,VWS V14.01,2013-08-06 03:31:00,
2013-08-05 23:36:00,70.9,69.4,29.93,WNW,290,0.0,0.0,95,0.00,,---,0.00,VWS V14.01,2013-08-06 03:36:00,
2013-08-05 23:42:00,70.9,69.4,29.93,WNW,290,0.0,0.0,95,0.00,,---,0.00,VWS V14.01,2013-08-06 03:42:00,
2013-08-05 23:47:00,70.9,69.4,29.93,WNW,290,0.0,0.0,95,0.00,,---,0.00,VWS V14.01,2013-08-06 03:47:00,
2013-08-05 23:52:00,70.9,69.4,29.93,WNW,290,0.0,0.0,95,0.00,,---,0.00,VWS V14.01,2013-08-06 03:52:00,
2013-08-05 23:57:00,70.9,69.1,29.93,WNW,290,1.0,1.0,94,0.00,,---,0.00,VWS V14.01,2013-08-06 03:57:00,